www.pogodaiklimat.ru

Погода и климат >> Архив погоды >> Кувейт >> Jahra


ПОГОДА в Jahra

  • Прогноз погоды в Jahra
  • Монитор погоды в Jahra
  • Климат города

АРХИВ ПОГОДЫ в Jahra

Время (UTC), дата Ветер
(напр.,м/с)
 
Видим.   Явления Облачность Т
(С)
Тd
(С)
f
(%)
Тe
(С)
Тes
(С)
Комфортность P
(гПа)
Po
(гПа)
Тmin
(С)
Tmax
(С)
R
(мм)
R24
(мм)
S
(см)
12 15.11 СЗ 2-3
{5}
н/о н/о +28.4 -9.1 8 +25 +25 комфорт 1014.7 1015.0
15 15.11 З 1-2
{4}
н/о н/о +23.9 -8.6 11 +22 +22 комфорт 1015.3 1015.0
18 15.11 ЮЗ 1-1
{4}
н/о н/о +19.2 -8.4 15 +20 +20 1016.0 1016.0
21 15.11 З 2-3
{3}
н/о н/о +17.2 -5.2 21 +18 +18 1015.9 1016.0 +12.4 +29.1
00 16.11 З 2-3
{4}
н/о н/о +15.8 -5.0 24 +16 +16 1015.9 1016.0
03 16.11 З 2-2
{4}
н/о н/о +15.5 -1.0 32 +16 +16 1016.9 1017.0
06 16.11 З 3-4
{6}
н/о н/о +22.4 +1.4 25 +22 +22 комфорт 1018.2 1018.0
09 16.11 СЗ 4-7
{7}
н/о н/о +27.5 +1.4 18 +25 +25 комфорт 1016.4 1016.0
12 16.11 СЗ 3-6
{7}
н/о н/о +28.4 +0.3 16 +26 +26 жарко 1015.2 1015.0
15 16.11 СЗ 2-4
{5}
н/о н/о +25.7 +1.1 20 +24 +24 комфорт 1016.3 1016.0
18 16.11 З 2-2
{5}
н/о н/о +21.3 +1.6 27 +21 +21 комфорт 1017.3 1017.0
21 16.11 З 4-6
{6}
н/о н/о +20.9 +1.5 28 +21 +21 комфорт 1017.2 1017.0 +14.6 +29.7
00 17.11 З 1-1
{6}
н/о н/о +17.9 +2.8 36 +20 +20 1017.7 1018.0
03 17.11 Ю 2-2
{3}
н/о н/о +13.5 +2.6 48 +13 +13 1018.5 1019.0
06 17.11 ЮЗ 2-2
{3}
н/о н/о +21.5 +3.5 31 +22 +22 комфорт 1020.0 1020.0
09 17.11 СВ 2-4
{4}
н/о н/о +26.4 +4.4 24 +25 +25 комфорт 1018.1 1018.0
12 17.11 З 2-5
{5}
н/о н/о +28.4 +0.5 16 +26 +26 жарко 1016.6 1017.0
15 17.11 СЗ 1-2
{5}
н/о н/о +22.6 +3.0 28 +22 +22 комфорт 1017.7 1018.0
18 17.11 Ю 1-1
{5}
н/о н/о +19.5 +3.9 36 +21 +21 комфорт 1018.7 1019.0
21 17.11 ЮЗ 2-3
{3}
н/о н/о +16.5 -0.2 32 +17 +17 1018.9 1019.0 +13.4 +29.1
00 18.11 ЮЗ 2-3
{3}
н/о н/о +15.2 0.0 35 +15 +15 1018.9 1019.0
03 18.11 ЮЗ 2-4
{4}
н/о н/о +15.8 +6.8 55 +16 +16 1019.6 1020.0
06 18.11 ЮЗ 2-4
{4}
н/о н/о +22.3 +8.3 41 +24 +24 комфорт 1021.5 1022.0
09 18.11 Ю 2-4
{5}
н/о н/о +26.7 +2.8 21 +25 +25 комфорт 1019.7 1020.0
12 18.11 Ю 1-2
{5}
н/о н/о +29.3 +7.0 25 +26 +26 жарко 1018.3 1018.0
15 18.11 ЮВ 3-5
{5}
н/о н/о +22.7 +12.9 54 +26 +26 жарко 1018.9 1019.0
18 18.11 Ю 1-1
{5}
н/о н/о +19.9 +12.7 63 +23 +23 комфорт 1019.8 1020.0
21 18.11 ЮЗ 1-1
{2}
н/о н/о +18.3 +11.7 65 +20 +20 1019.8 1020.0 +14.9 +29.3
00 19.11 ЮЗ 1-2
{2}
н/о н/о +16.8 +9.9 64 +18 +18 1019.4 1019.0
03 19.11 СВ 1-1
{3}
н/о н/о +15.6 +9.8 68 +17 +17 1019.7 1020.0
06 19.11 Ю 2-3
{3}
н/о н/о +19.9 +10.1 53 +22 +22 комфорт 1021.4 1021.0
09 19.11 ЮВ 5-8
{9}
н/о н/о +27.3 +5.5 25 +26 +26 жарко 1019.0 1019.0
12 19.11 ЮВ 5-8
{9}
н/о н/о +27.5 +3.1 21 +26 +26 жарко 1017.5 1018.0
15 19.11 В 2-3
{9}
н/о н/о +23.5 +9.9 42 +25 +25 комфорт 1018.2 1018.0
18 19.11 ЮВ 2-2
{9}
н/о н/о +21.0 +10.7 52 +24 +24 комфорт 1018.7 1019.0
21 19.11 Ю 1-2
{3}
н/о н/о +19.1 +10.1 56 +21 +21 комфорт 1018.2 1018.0 +15.5 +28.2
00 20.11 ЮЗ 1-1
{3}
н/о н/о +17.5 +10.8 65 +19 +19 1018.1 1018.0
03 20.11 СВ 1-1
{2}
н/о н/о +16.5 +11.3 71 +17 +17 1018.5 1019.0
06 20.11 ЮВ 3-4
{5}
н/о н/о +22.8 +13.9 57 +26 +26 жарко 1019.3 1019.0
09 20.11 ЮВ 5-9
{9}
н/о н/о +29.1 +6.4 24 +28 +28 жарко 1016.6 1017.0
12 20.11 ЮВ 5-8
{10}
н/о н/о +28.9 +6.2 24 +28 +28 жарко 1015.1 1015.0
15 20.11 В 2-3
{8}
н/о н/о +24.3 +12.6 48 +26 +26 жарко 1015.8 1016.0
18 20.11 ЮВ 1-2
{8}
н/о н/о +21.5 +16.8 75 +25 +25 комфорт 1015.8 1016.0
21 20.11 ЮВ 2-3
{3}
н/о н/о +21.4 +16.5 74 +25 +25 комфорт 1015.1 1015.0 +16.4 +29.8
00 21.11 З 1-2
{3}
н/о н/о +21.6 +15.9 70 +25 +25 комфорт 1013.9 1014.0
03 21.11 ЮВ 4-6
{6}
н/о н/о +22.6 +15.1 63 +26 +26 жарко 1014.3 1014.0
09 21.11 ЮВ 3-5
{5}
н/о н/о +26.5 +5.8 27 +26 +26 жарко 1012.6 1013.0
12 21.11 В 3-4
{9}
н/о н/о +22.2 +12.6 54 +25 +25 комфорт 1011.8 1012.0
15 21.11 ЮВ 3-5
{7}
н/о н/о +21.3 +15.9 71 +25 +25 комфорт 1011.9 1012.0
18 21.11 Ю 1-2
{7}
н/о н/о +17.7 +12.3 71 +19 +19 1012.3 1012.0
21 21.11 Ю 1-2
{4}
н/о н/о +16.9 +12.0 73 +18 +18 1011.6 1012.0 +16.7 +27.4
00 22.11 В 1-2
{4}
н/о н/о +17.6 +12.7 73 +19 +19 1011.5 1012.0
03 22.11 ЮВ 2-3
{5}
н/о н/о +17.5 +14.3 81 +18 +18 1011.9 1012.0
06 22.11 З 5-8
{8}
н/о н/о +22.9 +13.6 56 +26 +26 жарко 1012.5 1013.0

 

Местоположение метеостанции Jahra (Кувейт): широта 29.32 долгота 47.67 высота над уровнем моря 55 м.

В архиве по умолчанию представлена погода в Jahra за последнюю неделю. Архивные данные за месяц целиком и за предыдущие месяцы, начиная с января 2011 года, Вы можете получить, выбрав интересующий диапазон дат из раскрывающегося списка и нажав кнопку "Ввод!".

Внимание! Время в таблицах - всемирное. Для получения местного времени необходимо прибавить поправку, которая в Jahra равна 3 ч.

Смотрите также архив погоды в соседних городах и на ближайших метеорологических станциях:

Погода в Sulaibiya (Кувейт) (7 км)
Погода в Experimental Farm (Кувейт) (26 км)
Погода в Minagish (Кувейт) (31 км)
Погода в Kuwait (Кувейт) (31 км)
Погода в Jal Aliyah (Кувейт) (33 км)
Погода в Kuwait City (Кувейт) (37 км)
Погода в Al-Shuaiba (Кувейт) (42 км)
Погода в Sabriyah (Кувейт) (51 км)
Погода в Failaka Island (Кувейт) (61 км)
Погода в Mitribah (Кувейт) (63 км)

Пояснения к столбцам:

Ветер - указаны скорость ветра в м/с - средняя за 10 мин, порывы в срок и между сроками (в фигурных скобках) и направление, откуда дует ветер: С - северный, СВ - северо-восточный, В - восточный, ЮВ - юго-восточный, Ю - южный, ЮЗ - юго-западный, З - западный, СЗ - северо-западный.
Видимость - горизонтальная дальность видимости в метрах или километрах. При видимости от 1 до 10 км при отсутствии осадков обычно наблюдается дымка, при ухудшении видимости до 1 км и менее - туман. В сухую погоду видимость может ухудшаться дымом, пылью или мглою.
Явления - указаны атмосферные явления, наблюдавшиеся в срок или в последний час перед сроком; фигурными скобками обозначены явления, наблюдавшиеся между сроками (за 1-3 часа до срока); квадратными скобками обозначены град или гололедные отложения с указанием их диаметра в мм.
Облачность - указаны через наклонную черту общая и нижняя облачность в баллах и высота нижней границы облаков в метрах; квадратными скобками обозначены формы облаков: Ci - перистые, Cs - перисто-слоистые, Cc - перисто-кучевые, Ac - высококучевые, As - высокослоистые, Sc - слоисто-кучевые, Ns - слоисто-дождевые, Cu - кучевые, Cb - кучево-дождевые. Подробнее классификацию облаков см. в Атласе облаков (PDF).
T - Температура воздуха - температура, измеренная на высоте 2 м над землей.
Td - Температура точки росы - температура, при понижении до которой содержащийся в воздухе водяной пар достигнет насыщения.
f - Относительная влажность воздуха - влажноcть воздуха, измеренная на высоте 2 м над землей.
Te - Эффективная температура - температура, которую ощущает одетый по сезону человек в тени. Характеристика душности погоды. При расчете учитывается влияние влажности воздуха и скорости ветра на теплоощущения человека.
Tes - Эффективная температура на солнце - температура, которую ощущает человек, с поправкой на солнечный нагрев. Характеристика знойности погоды. Зависит от высоты солнца над горизонтом, облачности и скорости ветра. Ночью, в пасмурную погоду, а также при ветре 12 м/с и более поправка равна нулю.
P - Атмосферное давление - приведенное к уровню моря атмосферное давление.
Po - Атмосферное давление - измеренное на уровне метеостанции атмосферное давление.
Tmin - Минимальная температура - минимум температуры воздуха на высоте 2 м над землей.
Tmax - Максимальная температура - максимум температуры воздуха на высоте 2 м над землей.
R - Количество осадков - Количество выпавших осадков за период времени, мм. При наведении курсора мыши на число - период времени, за который выпало указанное количество осадков.
R24 - Количество осадков - Количество выпавших осадков за 24 часа, мм.
S - Снежный покров - Высота снежного покрова, см. При наведении курсора мыши на число - состояние снежного покрова и степень покрытия местности в баллах.